{"data":{"norad_id":67076,"epoch":"2026-09-20T22:36:34.905888Z","epoch_age_seconds":43080,"freshness":"FRESH","line1":"1 67076U 25298B   26263.94207067  .00003012  00000+0  26011-3 0  9994","line2":"2 67076  69.9986 242.1802 0003540 273.8299  86.2455 14.98330055 42460","mean_motion":14.98330055,"eccentricity":0.000354,"inclination_deg":69.9986,"raan_deg":242.1802,"arg_perigee_deg":273.8299,"mean_anomaly_deg":86.2455,"bstar":0.00026011,"rev_number":4246,"period_min":96.106995597842,"perigee_km":569.59535263827,"apogee_km":574.51608908464,"semimajor_km":6950.1927208615,"source":"CELESTRAK","updated_at":"2026-09-21T09:00:36.097452Z"}}